Lihue, HI

4:59 PM HST on March 24, 2019 (GMT -1000)
Lihue

Weather History for PHLI - March, 2019

Change the Weather History Date:

Sunday, March 24, 2019

  Actual Average Record
Temperature  
Mean Temperature 74 °F 73 °F  
Max Temperature 77 °F 79 °F 85 °F (2005)
Min Temperature 70 °F 68 °F 53 °F (1957)
Degree Days  
Heating Degree Days 0 0  
Month to date heating degree days 0  
Since 1 July heating degree days 0  
Cooling Degree Days 8 8  
Month to date cooling degree days 180  
Year to date cooling degree days 575  
Growing Degree Days 24 (Base 50)    
Moisture  
Dew Point 66 °F    
Average Humidity 79    
Maximum Humidity 90    
Minimum Humidity 74    
Precipitation  
Precipitation 0.06 in 0.16 in 1.35 in (1971)
Month to date precipitation 3.60  
Year to date precipitation 10.51  
Sea Level Pressure  
Sea Level Pressure 30.14 in    
Wind  
Wind Speed 13 mph ()    
Max Wind Speed 20 mph    
Max Gust Speed -    
Visibility 9.0 miles    
Events Rain    
T = Trace of Precipitation, MM = Missing Value Source: Averaged Metar Reports

Daily Weather History Graph

Daily Weather History Graph

Search for Another Location

Airport or City:

Astronomy

Mar. 24, 2019 Rise Set
Actual Time 6:37 AM HST 6:49 PM HST
Civil Twilight 6:15 AM HST 7:12 PM HST
Nautical Twilight 5:49 AM HST 7:38 PM HST
Astronomical Twilight 5:23 AM HST 8:04 PM HST
Moon 10:56 PM HST (3/24) 9:35 AM HST (3/24)
Length of Visible Light 12h 56m
Length of Day
12h 12m
Waning Gibbous, 81% of the Moon is Illuminated
Today
Waning Gibbous
Mar 27
Last Quarter
Apr 4
New
Apr 12
First Quarter
Apr 19
Full

Hourly Weather History & Observations

Time (HST) Temp. Dew Point Humidity Pressure Visibility Wind Dir Wind Speed Gust Speed Precip Events Conditions
12:10 AM 72.0 °F 64.0 °F 76% 30.17 in 10.0 mi NE 15.0 mph - N/A   Overcast
12:53 AM 71.1 °F 64.9 °F 81% 30.17 in 10.0 mi NE 13.8 mph - N/A   Scattered Clouds
1:53 AM 72.0 °F 64.0 °F 76% 30.14 in 10.0 mi NE 13.8 mph - N/A   Scattered Clouds
2:53 AM 72.0 °F 64.9 °F 78% 30.13 in 10.0 mi NE 13.8 mph - N/A   Scattered Clouds
3:05 AM 72.0 °F 64.9 °F 78% 30.14 in 10.0 mi NE 13.8 mph - N/A   Mostly Cloudy
3:27 AM 72.0 °F 64.9 °F 78% 30.13 in 10.0 mi NE 15.0 mph - N/A   Overcast
3:53 AM 72.0 °F 64.9 °F 78% 30.12 in 10.0 mi NE 15.0 mph - N/A   Overcast
4:53 AM 71.1 °F 64.9 °F 81% 30.12 in 10.0 mi NE 17.3 mph - N/A   Scattered Clouds
5:53 AM 71.1 °F 64.9 °F 81% 30.14 in 10.0 mi NNE 12.7 mph - N/A   Scattered Clouds
6:53 AM 72.0 °F 66.0 °F 81% 30.15 in 10.0 mi NE 15.0 mph - N/A   Mostly Cloudy
7:53 AM 72.0 °F 66.9 °F 84% 30.16 in 10.0 mi NE 16.1 mph - N/A   Overcast
8:53 AM 72.0 °F 66.0 °F 81% 30.18 in 7.0 mi East 19.6 mph - N/A   Overcast
9:13 AM 71.1 °F 63.0 °F 75% 30.18 in 10.0 mi NE 13.8 mph - 0.00 in   Overcast
9:53 AM 73.0 °F 66.0 °F 79% 30.18 in 10.0 mi NNE 11.5 mph - 0.00 in   Overcast
10:53 AM 70.0 °F 66.9 °F 90% 30.17 in 3.0 mi NE 4.6 mph - 0.03 in Rain Light Rain
11:53 AM 75.0 °F 69.1 °F 82% 30.16 in 10.0 mi NNE 15.0 mph - 0.01 in   Overcast
12:53 PM 75.9 °F 68.0 °F 76% 30.14 in 10.0 mi NE 13.8 mph - N/A   Mostly Cloudy
1:08 PM 75.9 °F 66.9 °F 74% 30.14 in 10.0 mi NE 18.4 mph - N/A   Mostly Cloudy
1:34 PM 71.1 °F 66.9 °F 87% 30.13 in 4.0 mi East 15.0 mph - 0.00 in Rain Light Rain
1:53 PM 71.1 °F 66.9 °F 87% 30.12 in 4.0 mi East 10.4 mph - 0.02 in   Mostly Cloudy
2:53 PM 77.0 °F 68.0 °F 74% 30.11 in 10.0 mi NNE 15.0 mph - N/A   Mostly Cloudy
3:53 PM 77.0 °F 68.0 °F 74% 30.10 in 10.0 mi NNE 13.8 mph - N/A   Scattered Clouds
4:53 PM 75.0 °F 66.9 °F 76% 30.10 in 10.0 mi NNE 10.4 mph - N/A   Scattered Clouds